Total_Precipitation_Accumulation
1.38 1.47 1.49 1.31 1.05 0.93 0.93 0.94 0.95 0.96 0.99 1.02 0.94 0.96 1.06 1.08 1.02 1.11 1.23 1.31 1.41 1.49 1.49 1.54 1.61 1.60 1.77 1.82 1.94 2.07 2.15 2.14 1.92 1.69 1.57 1.60 1.66 1.67 1.61 1.50 1.47 1.48 1.42
1.24 1.22 1.05 0.87 0.76 0.73 0.70 0.69 0.69 0.73 0.73 0.74 0.70 0.70 0.81 0.92 0.93 1.01 1.08 1.07 1.15 1.27 1.36 1.40 1.39 1.40 1.53 1.61 1.71 1.80 1.97 2.06 1.97 1.80 1.66 1.57 1.48 1.55 1.69 1.70 1.66 1.55 1.54
0.83 0.86 0.81 0.72 0.67 0.65 0.62 0.60 0.58 0.62 0.66 0.65 0.61 0.65 0.69 0.76 0.90 0.95 0.96 0.95 0.96 0.98 1.05 1.08 1.13 1.25 1.41 1.46 1.49 1.60 1.78 1.88 1.99 1.90 1.79 1.69 1.52 1.48 1.67 1.64 1.67 1.84 1.73
0.61 0.64 0.65 0.63 0.61 0.63 0.64 0.62 0.58 0.59 0.62 0.62 0.57 0.58 0.67 0.75 0.82 0.91 0.91 0.87 0.86 0.90 0.94 0.93 0.92 0.99 1.13 1.28 1.37 1.54 1.73 1.91 2.02 1.99 1.94 1.86 1.74 1.61 1.68 1.80 1.84 1.91 1.90
0.51 0.51 0.59 0.61 0.59 0.56 0.58 0.56 0.55 0.55 0.56 0.56 0.53 0.58 0.63 0.66 0.70 0.86 0.88 0.86 0.89 0.85 0.86 0.89 0.91 0.92 0.96 1.04 1.04 1.24 1.46 1.74 1.91 2.01 1.99 1.97 1.88 1.77 1.67 1.83 1.90 2.01 2.09
0.39 0.41 0.49 0.56 0.56 0.57 0.55 0.53 0.51 0.52 0.53 0.53 0.52 0.57 0.57 0.53 0.76 0.86 0.85 0.87 0.93 0.97 0.93 0.91 0.88 0.87 0.97 0.98 0.96 1.01 1.17 1.37 1.57 1.68 1.73 1.77 1.81 1.87 1.97 1.97 1.94 1.98 2.05
0.37 0.40 0.47 0.49 0.47 0.50 0.52 0.47 0.44 0.48 0.51 0.52 0.54 0.56 0.54 0.53 0.59 0.62 0.71 0.80 0.93 0.97 0.92 1.00 1.03 0.92 0.97 1.00 1.06 1.01 0.97 1.03 1.22 1.42 1.52 1.55 1.64 1.71 1.95 1.98 1.97 1.98 1.87
0.36 0.38 0.43 0.44 0.44 0.43 0.45 0.42 0.42 0.45 0.49 0.50 0.59 0.60 0.53 0.48 0.52 0.52 0.59 0.68 0.80 0.84 0.85 0.93 1.15 1.17 1.08 1.08 1.15 1.20 1.08 0.93 0.97 1.05 1.23 1.40 1.48 1.66 1.97 2.18 2.13 1.90 1.80
0.37 0.35 0.37 0.40 0.43 0.43 0.38 0.38 0.39 0.44 0.47 0.46 0.50 0.57 0.52 0.48 0.51 0.51 0.55 0.62 0.71 0.72 0.76 0.89 1.02 1.12 1.11 1.12 1.08 1.14 1.17 1.04 1.01 1.07 1.07 1.17 1.34 1.53 1.81 2.09 2.18 2.11 1.89
0.36 0.37 0.39 0.38 0.37 0.39 0.39 0.39 0.40 0.45 0.50 0.52 0.52 0.50 0.48 0.47 0.51 0.53 0.57 0.57 0.60 0.58 0.63 0.82 1.04 1.00 1.00 1.06 1.07 1.16 1.27 1.10 1.03 1.13 1.11 1.13 1.17 1.41 1.80 1.99 2.11 2.12 1.99
0.42 0.46 0.46 0.42 0.42 0.47 0.49 0.47 0.47 0.47 0.50 0.53 0.53 0.50 0.46 0.47 0.55 0.55 0.56 0.53 0.57 0.59 0.62 0.73 0.80 0.83 0.84 0.95 1.02 1.06 1.24 1.17 1.17 1.31 1.33 1.27 1.31 1.36 1.50 1.68 1.92 2.07 2.00
0.44 0.47 0.48 0.47 0.47 0.51 0.57 0.57 0.58 0.57 0.57 0.59 0.60 0.58 0.54 0.51 0.52 0.54 0.57 0.57 0.61 0.60 0.65 0.69 0.67 0.70 0.74 0.80 0.81 0.88 1.07 1.20 1.29 1.43 1.46 1.40 1.35 1.38 1.40 1.44 1.59 1.74 1.76
0.47 0.48 0.50 0.51 0.51 0.51 0.54 0.58 0.62 0.61 0.59 0.61 0.61 0.60 0.61 0.58 0.53 0.55 0.57 0.58 0.61 0.59 0.62 0.69 0.72 0.74 0.75 0.73 0.74 0.82 0.97 1.15 1.35 1.42 1.34 1.26 1.29 1.34 1.35 1.46 1.54 1.61 1.65
0.53 0.54 0.53 0.52 0.52 0.52 0.54 0.55 0.56 0.57 0.56 0.57 0.59 0.59 0.58 0.56 0.49 0.49 0.54 0.57 0.62 0.64 0.67 0.72 0.76 0.76 0.73 0.69 0.77 0.87 1.01 1.21 1.32 1.27 1.24 1.14 1.17 1.32 1.39 1.41 1.43 1.42 1.49
0.58 0.58 0.55 0.52 0.49 0.50 0.49 0.50 0.52 0.52 0.57 0.63 0.64 0.66 0.63 0.57 0.58 0.65 0.64 0.57 0.56 0.60 0.68 0.75 0.79 0.86 0.86 0.89 0.97 1.04 1.04 1.08 1.16 1.09 1.16 1.12 1.12 1.23 1.29 1.27 1.31 1.25 1.20
0.55 0.56 0.54 0.56 0.54 0.49 0.47 0.50 0.57 0.59 0.65 0.62 0.63 0.63 0.59 0.59 0.64 0.62 0.64 0.65 0.64 0.69 0.76 0.79 0.87 0.96 1.01 1.06 1.10 1.08 1.05 1.04 1.07 1.09 1.12 1.13 1.09 1.12 1.15 1.18 1.25 1.28 1.27
0.51 0.49 0.49 0.52 0.54 0.53 0.53 0.53 0.56 0.57 0.57 0.56 0.54 0.55 0.56 0.58 0.56 0.55 0.58 0.63 0.66 0.72 0.74 0.82 1.03 1.06 1.02 1.03 1.08 1.08 0.98 0.92 0.93 0.95 0.96 0.98 0.99 1.02 1.06 1.10 1.16 1.22 1.24
0.57 0.62 0.56 0.51 0.53 0.55 0.56 0.55 0.55 0.58 0.60 0.58 0.52 0.51 0.52 0.54 0.54 0.53 0.57 0.59 0.57 0.58 0.59 0.71 0.88 0.93 0.95 0.99 0.96 0.92 0.87 0.83 0.85 0.85 0.83 0.83 0.87 0.93 0.98 1.03 1.05 1.06 1.11
0.52 0.57 0.58 0.57 0.56 0.54 0.54 0.52 0.51 0.51 0.54 0.58 0.57 0.56 0.59 0.60 0.60 0.60 0.60 0.53 0.52 0.54 0.58 0.67 0.74 0.82 0.85 0.85 0.84 0.83 0.81 0.82 0.81 0.81 0.82 0.84 0.85 0.89 0.91 0.91 0.96 1.03 1.03
0.46 0.55 0.59 0.56 0.56 0.57 0.55 0.54 0.55 0.54 0.55 0.56 0.53 0.55 0.59 0.59 0.55 0.55 0.55 0.55 0.57 0.58 0.57 0.59 0.65 0.70 0.75 0.78 0.79 0.80 0.81 0.83 0.81 0.80 0.79 0.81 0.85 0.89 0.90 0.90 0.93 0.96 0.95
0.47 0.50 0.57 0.55 0.53 0.56 0.60 0.60 0.62 0.62 0.61 0.61 0.60 0.64 0.66 0.61 0.59 0.60 0.60 0.61 0.62 0.62 0.61 0.59 0.60 0.65 0.72 0.80 0.85 0.85 0.83 0.85 0.87 0.85 0.85 0.87 0.89 0.91 0.90 0.92 0.94 0.95 0.94
0.54 0.51 0.50 0.51 0.53 0.54 0.58 0.59 0.60 0.61 0.60 0.62 0.64 0.67 0.69 0.63 0.62 0.64 0.64 0.62 0.60 0.62 0.65 0.66 0.66 0.68 0.72 0.77 0.83 0.87 0.88 0.90 0.97 1.01 1.01 1.00 1.02 1.01 0.99 0.99 1.01 1.00 0.99
0.55 0.56 0.54 0.52 0.51 0.56 0.57 0.56 0.59 0.61 0.62 0.63 0.64 0.63 0.62 0.61 0.61 0.61 0.63 0.63 0.62 0.64 0.67 0.70 0.70 0.70 0.72 0.76 0.81 0.86 0.87 0.86 0.95 1.07 1.14 1.12 1.10 1.10 1.09 1.07 1.04 1.06 1.07
0.50 0.56 0.54 0.51 0.51 0.53 0.53 0.55 0.57 0.57 0.57 0.61 0.62 0.61 0.62 0.63 0.63 0.63 0.65 0.66 0.67 0.67 0.69 0.74 0.74 0.71 0.70 0.73 0.79 0.83 0.88 0.93 0.99 1.06 1.15 1.19 1.13 1.08 1.10 1.09 1.04 1.03 1.10
0.46 0.50 0.52 0.53 0.55 0.56 0.57 0.60 0.60 0.59 0.56 0.57 0.58 0.58 0.59 0.60 0.63 0.66 0.69 0.72 0.73 0.72 0.72 0.75 0.77 0.78 0.75 0.74 0.77 0.81 0.93 1.01 1.02 1.03 1.08 1.16 1.14 1.08 1.07 1.07 1.06 1.06 1.09
0.45 0.46 0.49 0.52 0.54 0.54 0.57 0.61 0.63 0.62 0.61 0.60 0.60 0.63 0.64 0.64 0.65 0.65 0.68 0.70 0.73 0.72 0.70 0.70 0.71 0.73 0.74 0.72 0.74 0.83 0.91 0.90 0.95 1.05 1.08 1.14 1.22 1.19 1.15 1.15 1.12 1.13 1.13